Time,TemperatureF,DewpointF,PressureIn,WindDirection,WindDirectionDegrees,WindSpeedMPH,WindSpeedGustMPH,Humidity,HourlyPrecipIn,Conditions,Clouds,dailyrainin,SoftwareType,DateUTC
2013-03-09 00:02:00,48.6,46.6,29.40,ESE,102,6.0,19.0,93,0.00,,,0.02,meteohub,2013-03-09 00:02:00,
2013-03-09 00:07:00,48.6,46.6,29.40,East,101,6.0,21.0,93,0.00,,,0.00,meteohub,2013-03-09 00:07:00,
2013-03-09 00:12:00,48.6,46.6,29.40,East,88,8.0,21.0,93,0.00,,,0.00,meteohub,2013-03-09 00:12:00,
2013-03-09 00:17:00,48.6,46.6,29.40,ESE,109,11.0,21.0,93,0.00,,,0.00,meteohub,2013-03-09 00:17:00,
2013-03-09 00:22:00,48.7,46.8,29.39,East,81,11.0,18.0,93,0.00,,,0.00,meteohub,2013-03-09 00:22:00,
2013-03-09 00:27:00,48.7,46.8,29.40,ESE,107,10.0,18.0,93,0.00,,,0.00,meteohub,2013-03-09 00:27:00,
2013-03-09 00:32:00,48.7,46.8,29.40,ENE,74,11.0,18.0,93,0.00,,,0.00,meteohub,2013-03-09 00:32:00,
2013-03-09 00:37:00,48.7,46.8,29.40,East,95,11.0,21.0,93,0.00,,,0.00,meteohub,2013-03-09 00:37:00,
2013-03-09 00:42:00,48.7,46.6,29.40,East,86,13.0,21.0,92,0.00,,,0.00,meteohub,2013-03-09 00:42:00,
2013-03-09 00:47:00,48.7,46.6,29.39,East,100,14.0,24.0,92,0.00,,,0.00,meteohub,2013-03-09 00:47:00,
2013-03-09 00:52:00,48.9,46.8,29.39,East,84,11.0,24.0,92,0.00,,,0.00,meteohub,2013-03-09 00:52:00,
2013-03-09 00:57:00,48.9,46.8,29.39,East,101,16.0,24.0,92,0.00,,,0.00,meteohub,2013-03-09 00:57:00,
2013-03-09 01:02:00,48.9,46.8,29.40,East,92,13.0,22.0,92,0.00,,,0.00,meteohub,2013-03-09 01:02:00,
2013-03-09 01:07:00,49.1,46.9,29.40,ESE,104,13.0,22.0,92,0.00,,,0.00,meteohub,2013-03-09 01:07:00,
2013-03-09 01:12:00,49.1,46.9,29.40,ESE,119,15.0,19.0,92,0.00,,,0.00,meteohub,2013-03-09 01:12:00,
2013-03-09 01:17:00,49.3,47.1,29.39,East,87,14.0,22.0,92,0.00,,,0.00,meteohub,2013-03-09 01:17:00,
2013-03-09 01:22:00,49.3,47.1,29.39,ENE,74,15.0,22.0,92,0.00,,,0.00,meteohub,2013-03-09 01:22:00,
2013-03-09 01:27:00,49.3,47.1,29.39,East,85,16.0,22.0,92,0.00,,,0.00,meteohub,2013-03-09 01:27:00,
2013-03-09 01:32:00,49.3,47.1,29.39,ESE,105,10.0,24.0,92,0.00,,,0.00,meteohub,2013-03-09 01:32:00,
2013-03-09 01:37:00,49.3,47.1,29.39,ESE,105,10.0,24.0,92,0.00,,,0.00,meteohub,2013-03-09 01:37:00,
2013-03-09 01:42:00,49.5,47.3,29.39,East,93,13.0,24.0,92,0.00,,,0.00,meteohub,2013-03-09 01:42:00,
2013-03-09 01:47:00,49.5,47.3,29.39,East,92,10.0,24.0,92,0.00,,,0.00,meteohub,2013-03-09 01:47:00,
2013-03-09 01:52:00,49.5,47.3,29.39,ENE,71,16.0,20.0,92,0.00,,,0.00,meteohub,2013-03-09 01:52:00,
2013-03-09 01:57:00,49.5,47.3,29.39,ESE,111,15.0,28.0,92,0.00,,,0.00,meteohub,2013-03-09 01:57:00,
2013-03-09 02:02:00,49.5,47.3,29.39,East,94,8.0,28.0,92,0.00,,,0.00,meteohub,2013-03-09 02:02:00,
2013-03-09 02:07:00,49.5,47.3,29.39,ENE,68,11.0,28.0,92,0.00,,,0.00,meteohub,2013-03-09 02:07:00,
2013-03-09 02:17:00,49.5,47.3,29.39,ESE,106,11.0,19.0,92,0.00,,,0.00,meteohub,2013-03-09 02:17:00,
2013-03-09 02:27:00,49.5,47.3,29.39,ENE,73,6.0,18.0,92,0.00,,,0.00,meteohub,2013-03-09 02:27:00,
2013-03-09 02:32:00,49.5,47.3,29.39,East,86,10.0,18.0,92,0.00,,,0.00,meteohub,2013-03-09 02:32:00,
2013-03-09 02:37:00,49.6,47.5,29.39,ENE,67,9.0,14.0,92,0.00,,,0.00,meteohub,2013-03-09 02:37:00,
2013-03-09 02:42:00,49.6,47.5,29.39,ENE,72,6.0,16.0,92,0.00,,,0.00,meteohub,2013-03-09 02:42:00,
2013-03-09 02:47:00,49.6,47.5,29.39,ESE,103,6.0,16.0,92,0.00,,,0.00,meteohub,2013-03-09 02:47:00,
2013-03-09 02:57:00,49.6,47.5,29.39,ENE,74,6.0,20.0,92,0.00,,,0.00,meteohub,2013-03-09 02:57:00,
2013-03-09 03:02:00,49.6,47.5,29.39,ENE,72,11.0,20.0,92,0.00,,,0.00,meteohub,2013-03-09 03:02:00,
2013-03-09 03:07:00,49.6,47.5,29.39,East,94,13.0,20.0,92,0.00,,,0.00,meteohub,2013-03-09 03:07:00,
2013-03-09 03:12:00,49.6,47.5,29.38,East,87,11.0,20.0,92,0.00,,,0.00,meteohub,2013-03-09 03:12:00,
2013-03-09 03:17:00,49.6,47.5,29.38,East,82,10.0,18.0,92,0.00,,,0.00,meteohub,2013-03-09 03:17:00,
2013-03-09 03:22:00,49.6,47.5,29.38,ENE,64,6.0,18.0,92,0.00,,,0.00,meteohub,2013-03-09 03:22:00,
2013-03-09 03:27:00,49.6,47.5,29.38,East,86,10.0,18.0,92,0.00,,,0.00,meteohub,2013-03-09 03:27:00,
2013-03-09 03:32:00,49.6,47.5,29.38,NE,51,11.0,16.0,92,0.00,,,0.00,meteohub,2013-03-09 03:32:00,
2013-03-09 03:37:00,49.6,47.5,29.38,East,91,6.0,16.0,92,0.00,,,0.00,meteohub,2013-03-09 03:37:00,
2013-03-09 03:42:00,49.6,47.5,29.38,East,89,10.0,18.0,92,0.00,,,0.00,meteohub,2013-03-09 03:42:00,
2013-03-09 03:47:00,49.6,47.5,29.38,East,94,4.0,18.0,92,0.00,,,0.00,meteohub,2013-03-09 03:47:00,
2013-03-09 03:52:00,49.6,47.5,29.39,East,92,10.0,18.0,92,0.00,,,0.00,meteohub,2013-03-09 03:52:00,
2013-03-09 03:57:00,49.6,47.5,29.38,ESE,118,6.0,18.0,92,0.00,,,0.00,meteohub,2013-03-09 03:57:00,
2013-03-09 04:02:00,49.6,47.5,29.38,East,90,16.0,18.0,92,0.00,,,0.00,meteohub,2013-03-09 04:02:00,
2013-03-09 04:07:00,49.6,47.7,29.38,ESE,114,16.0,18.0,93,0.00,,,0.00,meteohub,2013-03-09 04:07:00,
2013-03-09 04:12:00,49.6,47.7,29.38,SE,125,8.0,25.0,93,0.00,,,0.00,meteohub,2013-03-09 04:12:00,
2013-03-09 04:17:00,49.6,47.7,29.38,East,98,14.0,25.0,93,0.00,,,0.00,meteohub,2013-03-09 04:17:00,
2013-03-09 04:22:00,49.6,47.7,29.38,SE,132,9.0,22.0,93,0.00,,,0.00,meteohub,2013-03-09 04:22:00,
2013-03-09 04:27:00,49.6,47.7,29.38,East,80,14.0,22.0,93,0.00,,,0.00,meteohub,2013-03-09 04:27:00,
2013-03-09 04:32:00,49.6,47.7,29.38,ESE,105,11.0,22.0,93,0.00,,,0.00,meteohub,2013-03-09 04:32:00,
2013-03-09 04:37:00,49.5,47.5,29.38,ESE,103,15.0,22.0,93,0.00,,,0.00,meteohub,2013-03-09 04:37:00,
2013-03-09 04:42:00,49.5,47.8,29.38,ESE,111,16.0,22.0,94,0.00,,,0.00,meteohub,2013-03-09 04:42:00,
2013-03-09 04:47:00,49.5,47.5,29.38,ESE,103,9.0,20.0,93,0.00,,,0.00,meteohub,2013-03-09 04:47:00,
2013-03-09 04:52:00,49.3,47.7,29.39,East,101,13.0,19.0,94,0.00,,,0.00,meteohub,2013-03-09 04:52:00,
2013-03-09 04:57:00,49.3,47.7,29.39,East,101,11.0,19.0,94,0.00,,,0.00,meteohub,2013-03-09 04:57:00,
2013-03-09 05:02:00,49.3,47.7,29.39,ESE,116,9.0,19.0,94,0.00,,,0.00,meteohub,2013-03-09 05:02:00,
2013-03-09 05:07:00,49.3,47.7,29.39,ESE,117,15.0,19.0,94,0.00,,,0.00,meteohub,2013-03-09 05:07:00,
2013-03-09 05:17:00,49.3,47.7,29.40,ESE,109,15.0,18.0,94,0.00,,,0.00,meteohub,2013-03-09 05:17:00,
2013-03-09 05:22:00,49.3,47.7,29.40,ESE,105,6.0,26.0,94,0.00,,,0.00,meteohub,2013-03-09 05:22:00,
2013-03-09 05:27:00,49.5,47.8,29.40,SE,139,11.0,26.0,94,0.00,,,0.00,meteohub,2013-03-09 05:27:00,
2013-03-09 05:32:00,49.5,47.8,29.40,ESE,119,10.0,26.0,94,0.00,,,0.00,meteohub,2013-03-09 05:32:00,
2013-03-09 05:37:00,49.5,47.8,29.40,East,96,9.0,24.0,94,0.00,,,0.00,meteohub,2013-03-09 05:37:00,
2013-03-09 05:42:00,49.5,47.8,29.40,ESE,113,14.0,24.0,94,0.00,,,0.00,meteohub,2013-03-09 05:42:00,
2013-03-09 05:47:00,49.5,47.8,29.41,ESE,108,14.0,19.0,94,0.00,,,0.00,meteohub,2013-03-09 05:47:00,
2013-03-09 05:52:00,49.5,47.8,29.41,SE,129,5.0,19.0,94,0.00,,,0.00,meteohub,2013-03-09 05:52:00,
2013-03-09 05:57:00,49.5,47.8,29.41,East,100,11.0,20.0,94,0.00,,,0.00,meteohub,2013-03-09 05:57:00,
2013-03-09 06:02:00,49.5,47.8,29.42,East,101,11.0,20.0,94,0.00,,,0.00,meteohub,2013-03-09 06:02:00,
2013-03-09 06:07:00,49.5,47.8,29.42,East,93,9.0,20.0,94,0.00,,,0.00,meteohub,2013-03-09 06:07:00,
2013-03-09 06:12:00,49.5,47.8,29.42,East,100,10.0,18.0,94,0.00,,,0.00,meteohub,2013-03-09 06:12:00,
2013-03-09 06:17:00,49.5,47.8,29.42,ESE,109,6.0,18.0,94,0.00,,,0.00,meteohub,2013-03-09 06:17:00,
2013-03-09 06:22:00,49.5,47.8,29.42,ESE,112,13.0,18.0,94,0.00,,,0.00,meteohub,2013-03-09 06:22:00,
2013-03-09 06:27:00,49.5,47.8,29.42,ESE,106,9.0,18.0,94,0.00,,,0.00,meteohub,2013-03-09 06:27:00,
2013-03-09 06:32:00,49.5,47.8,29.42,ESE,107,6.0,18.0,94,0.00,,,0.00,meteohub,2013-03-09 06:32:00,
2013-03-09 06:37:00,49.5,47.8,29.43,East,96,8.0,18.0,94,0.00,,,0.00,meteohub,2013-03-09 06:37:00,
2013-03-09 06:42:00,49.3,47.7,29.43,ESE,107,9.0,18.0,94,0.00,,,0.00,meteohub,2013-03-09 06:42:00,
2013-03-09 06:47:00,49.3,47.7,29.43,SE,131,8.0,18.0,94,0.00,,,0.00,meteohub,2013-03-09 06:47:00,
2013-03-09 06:52:00,49.3,47.7,29.43,ESE,103,13.0,20.0,94,0.00,,,0.00,meteohub,2013-03-09 06:52:00,
2013-03-09 06:57:00,49.3,47.7,29.44,East,92,9.0,20.0,94,0.00,,,0.00,meteohub,2013-03-09 06:57:00,
2013-03-09 07:02:00,49.3,47.3,29.44,ESE,106,5.0,19.0,93,0.00,,,0.00,meteohub,2013-03-09 07:02:00,
2013-03-09 07:07:00,49.3,47.3,29.44,SE,134,8.0,19.0,93,0.00,,,0.00,meteohub,2013-03-09 07:07:00,
2013-03-09 07:12:00,49.3,47.3,29.44,ESE,112,4.0,18.0,93,0.00,,,0.00,meteohub,2013-03-09 07:12:00,
2013-03-09 07:17:00,49.3,47.3,29.44,ESE,111,6.0,16.0,93,0.00,,,0.00,meteohub,2013-03-09 07:17:00,
2013-03-09 07:22:00,49.3,47.3,29.45,ESE,113,9.0,16.0,93,0.00,,,0.00,meteohub,2013-03-09 07:22:00,
2013-03-09 07:27:00,49.1,47.1,29.45,ESE,118,6.0,16.0,93,0.00,,,0.00,meteohub,2013-03-09 07:27:00,
2013-03-09 07:32:00,48.9,46.8,29.46,East,94,8.0,16.0,92,0.00,,,0.00,meteohub,2013-03-09 07:32:00,
2013-03-09 07:37:00,48.9,46.8,29.46,East,95,4.0,14.0,92,0.00,,,0.00,meteohub,2013-03-09 07:37:00,
2013-03-09 07:42:00,48.7,46.6,29.47,ESE,103,4.0,14.0,92,0.00,,,0.00,meteohub,2013-03-09 07:42:00,
2013-03-09 07:47:00,48.7,46.6,29.47,East,101,6.0,14.0,92,0.00,,,0.00,meteohub,2013-03-09 07:47:00,
2013-03-09 07:52:00,48.7,46.6,29.47,East,99,10.0,11.0,92,0.00,,,0.00,meteohub,2013-03-09 07:52:00,
2013-03-09 07:57:00,48.6,46.4,29.47,East,96,11.0,11.0,92,0.00,,,0.00,meteohub,2013-03-09 07:57:00,
2013-03-09 08:02:00,48.6,46.4,29.47,ESE,115,4.0,13.0,92,0.00,,,0.00,meteohub,2013-03-09 08:02:00,
2013-03-09 08:07:00,48.6,46.4,29.48,SE,128,6.0,14.0,92,0.00,,,0.00,meteohub,2013-03-09 08:07:00,
2013-03-09 08:12:00,48.6,46.4,29.48,ESE,114,9.0,14.0,92,0.00,,,0.00,meteohub,2013-03-09 08:12:00,
2013-03-09 08:17:00,48.6,46.4,29.48,East,99,11.0,11.0,92,0.00,,,0.00,meteohub,2013-03-09 08:17:00,
2013-03-09 08:22:00,48.6,46.4,29.48,ESE,122,9.0,16.0,92,0.00,,,0.00,meteohub,2013-03-09 08:22:00,
2013-03-09 08:27:00,48.7,46.6,29.49,ESE,117,6.0,16.0,92,0.00,,,0.00,meteohub,2013-03-09 08:27:00,
2013-03-09 08:32:00,48.7,46.6,29.49,ESE,115,6.0,16.0,92,0.00,,,0.00,meteohub,2013-03-09 08:32:00,
2013-03-09 08:37:00,48.9,46.8,29.49,East,99,10.0,13.0,92,0.00,,,0.00,meteohub,2013-03-09 08:37:00,
2013-03-09 08:42:00,49.5,47.3,29.49,East,92,9.0,13.0,92,0.00,,,0.00,meteohub,2013-03-09 08:42:00,
2013-03-09 08:47:00,49.6,47.1,29.49,ESE,110,11.0,13.0,91,0.00,,,0.00,meteohub,2013-03-09 08:47:00,
2013-03-09 08:52:00,49.8,47.3,29.49,ESE,120,11.0,15.0,91,0.00,,,0.00,meteohub,2013-03-09 08:52:00,
2013-03-09 08:57:00,50.0,47.1,29.49,ESE,119,5.0,19.0,90,0.00,,,0.00,meteohub,2013-03-09 08:57:00,
2013-03-09 09:02:00,50.0,46.9,29.49,ESE,116,13.0,19.0,89,0.00,,,0.00,meteohub,2013-03-09 09:02:00,
2013-03-09 09:07:00,50.2,47.1,29.49,SE,134,6.0,19.0,89,0.00,,,0.00,meteohub,2013-03-09 09:07:00,
2013-03-09 09:12:00,50.5,47.1,29.49,ESE,115,13.0,19.0,88,0.00,,,0.00,meteohub,2013-03-09 09:12:00,
2013-03-09 09:17:00,50.7,47.3,29.50,ESE,112,14.0,21.0,88,0.00,,,0.00,meteohub,2013-03-09 09:17:00,
2013-03-09 09:22:00,51.1,47.3,29.49,ESE,120,10.0,21.0,87,0.00,,,0.00,meteohub,2013-03-09 09:22:00,
2013-03-09 09:27:00,51.4,47.7,29.49,SE,126,9.0,21.0,87,0.00,,,0.00,meteohub,2013-03-09 09:27:00,
2013-03-09 09:32:00,51.4,47.5,29.49,ESE,119,11.0,20.0,86,0.00,,,0.00,meteohub,2013-03-09 09:32:00,
2013-03-09 09:37:00,51.1,47.1,29.49,ESE,108,9.0,20.0,86,0.00,,,0.00,meteohub,2013-03-09 09:37:00,
2013-03-09 09:42:00,50.9,46.9,29.49,ESE,109,11.0,20.0,86,0.00,,,0.00,meteohub,2013-03-09 09:42:00,
2013-03-09 09:47:00,50.7,46.9,29.50,ESE,119,14.0,20.0,87,0.00,,,0.00,meteohub,2013-03-09 09:47:00,
2013-03-09 09:52:00,51.3,47.5,29.50,ESE,109,14.0,21.0,87,0.00,,,0.00,meteohub,2013-03-09 09:52:00,
2013-03-09 09:57:00,51.8,48.0,29.50,ESE,115,16.0,21.0,87,0.00,,,0.00,meteohub,2013-03-09 09:57:00,
2013-03-09 10:02:00,52.3,48.2,29.50,ESE,109,13.0,21.0,86,0.00,,,0.00,meteohub,2013-03-09 10:02:00,
2013-03-09 10:07:00,52.7,48.4,29.51,SE,125,10.0,22.0,85,0.00,,,0.00,meteohub,2013-03-09 10:07:00,
2013-03-09 10:12:00,53.2,48.6,29.51,SE,124,8.0,22.0,84,0.00,,,0.00,meteohub,2013-03-09 10:12:00,
2013-03-09 10:17:00,53.2,48.2,29.51,East,98,13.0,22.0,83,0.00,,,0.00,meteohub,2013-03-09 10:17:00,
2013-03-09 10:22:00,53.1,48.4,29.51,ESE,107,15.0,24.0,84,0.00,,,0.00,meteohub,2013-03-09 10:22:00,
2013-03-09 10:27:00,52.9,47.8,29.51,ESE,102,13.0,24.0,83,0.00,,,0.00,meteohub,2013-03-09 10:27:00,
2013-03-09 10:32:00,52.9,48.2,29.51,ESE,110,9.0,21.0,84,0.00,,,0.00,meteohub,2013-03-09 10:32:00,
2013-03-09 10:37:00,52.5,47.8,29.51,ESE,108,16.0,21.0,84,0.00,,,0.00,meteohub,2013-03-09 10:37:00,
2013-03-09 10:42:00,52.9,48.6,29.51,ESE,117,11.0,21.0,85,0.00,,,0.00,meteohub,2013-03-09 10:42:00,
2013-03-09 10:47:00,53.1,48.4,29.51,SE,138,6.0,18.0,84,0.00,,,0.00,meteohub,2013-03-09 10:47:00,
2013-03-09 10:52:00,53.2,48.6,29.51,SE,124,9.0,18.0,84,0.00,,,0.00,meteohub,2013-03-09 10:52:00,
2013-03-09 10:57:00,53.2,48.6,29.51,ESE,103,15.0,18.0,84,0.00,,,0.00,meteohub,2013-03-09 10:57:00,
2013-03-09 11:02:00,53.4,49.1,29.51,East,94,14.0,18.0,85,0.00,,,0.00,meteohub,2013-03-09 11:02:00,
2013-03-09 11:07:00,53.1,48.7,29.51,East,100,16.0,19.0,85,0.00,,,0.00,meteohub,2013-03-09 11:07:00,
2013-03-09 11:12:00,53.4,49.3,29.51,SE,124,9.0,19.0,86,0.00,,,0.00,meteohub,2013-03-09 11:12:00,
2013-03-09 11:17:00,53.8,49.5,29.51,East,101,16.0,19.0,85,0.00,,,0.00,meteohub,2013-03-09 11:17:00,
2013-03-09 11:22:00,54.1,49.8,29.51,East,101,13.0,18.0,85,0.00,,,0.00,meteohub,2013-03-09 11:22:00,
2013-03-09 11:27:00,54.3,49.3,29.52,ESE,121,11.0,18.0,83,0.01,,,0.01,meteohub,2013-03-09 11:27:00,
2013-03-09 11:32:00,54.7,49.3,29.52,East,96,16.0,20.0,82,0.02,,,0.02,meteohub,2013-03-09 11:32:00,
2013-03-09 11:37:00,54.5,49.8,29.52,ESE,114,15.0,20.0,84,0.02,,,0.02,meteohub,2013-03-09 11:37:00,
2013-03-09 11:42:00,54.3,48.6,29.52,ESE,109,13.0,20.0,81,0.02,,,0.02,meteohub,2013-03-09 11:42:00,
2013-03-09 11:47:00,55.0,50.0,29.52,SE,126,10.0,20.0,83,0.02,,,0.02,meteohub,2013-03-09 11:47:00,
2013-03-09 11:52:00,54.9,48.7,29.52,ESE,123,14.0,20.0,80,0.02,,,0.02,meteohub,2013-03-09 11:52:00,
2013-03-09 11:57:00,54.7,48.9,29.52,ESE,105,13.0,22.0,81,0.02,,,0.02,meteohub,2013-03-09 11:57:00,
2013-03-09 12:02:00,54.9,49.5,29.52,ESE,112,10.0,22.0,82,0.02,,,0.02,meteohub,2013-03-09 12:02:00,
2013-03-09 12:07:00,55.6,49.8,29.52,ESE,119,13.0,22.0,81,0.02,,,0.02,meteohub,2013-03-09 12:07:00,
2013-03-09 12:12:00,55.9,49.8,29.52,ESE,117,19.0,20.0,80,0.02,,,0.02,meteohub,2013-03-09 12:12:00,
2013-03-09 12:17:00,55.2,48.6,29.52,East,92,14.0,22.0,78,0.02,,,0.02,meteohub,2013-03-09 12:17:00,
2013-03-09 12:22:00,54.9,48.6,29.52,ESE,102,13.0,22.0,79,0.01,,,0.02,meteohub,2013-03-09 12:22:00,
2013-03-09 12:27:00,55.4,48.4,29.52,ESE,109,13.0,22.0,77,0.00,,,0.02,meteohub,2013-03-09 12:27:00,
2013-03-09 12:32:00,55.6,48.9,29.52,ESE,103,15.0,22.0,78,0.00,,,0.02,meteohub,2013-03-09 12:32:00,
2013-03-09 12:37:00,55.6,48.9,29.52,ESE,105,13.0,24.0,78,0.00,,,0.02,meteohub,2013-03-09 12:37:00,
2013-03-09 12:42:00,55.4,48.4,29.52,ESE,103,14.0,24.0,77,0.00,,,0.02,meteohub,2013-03-09 12:42:00,
2013-03-09 12:47:00,55.6,48.6,29.52,SE,129,14.0,22.0,77,0.00,,,0.02,meteohub,2013-03-09 12:47:00,
2013-03-09 12:52:00,56.7,49.8,29.52,East,83,14.0,22.0,78,0.00,,,0.02,meteohub,2013-03-09 12:52:00,
2013-03-09 12:57:00,56.7,48.0,29.52,SE,143,13.0,22.0,73,0.00,,,0.02,meteohub,2013-03-09 12:57:00,
2013-03-09 13:02:00,56.7,48.4,29.52,ESE,105,14.0,22.0,74,0.00,,,0.02,meteohub,2013-03-09 13:02:00,
2013-03-09 13:07:00,56.8,48.6,29.52,ESE,109,14.0,21.0,74,0.00,,,0.02,meteohub,2013-03-09 13:07:00,
2013-03-09 13:12:00,56.8,48.6,29.52,ESE,114,16.0,22.0,74,0.00,,,0.02,meteohub,2013-03-09 13:12:00,
2013-03-09 13:17:00,57.0,47.7,29.52,ESE,121,15.0,22.0,71,0.00,,,0.02,meteohub,2013-03-09 13:17:00,
2013-03-09 13:22:00,55.9,47.1,29.52,ESE,117,9.0,21.0,72,0.00,,,0.02,meteohub,2013-03-09 13:22:00,
2013-03-09 13:27:00,57.0,48.0,29.52,ESE,116,14.0,26.0,72,0.00,,,0.02,meteohub,2013-03-09 13:27:00,
2013-03-09 13:32:00,57.4,48.0,29.52,SE,144,13.0,26.0,71,0.00,,,0.02,meteohub,2013-03-09 13:32:00,
2013-03-09 13:37:00,57.6,48.2,29.52,East,95,10.0,26.0,71,0.00,,,0.02,meteohub,2013-03-09 13:37:00,
2013-03-09 13:42:00,56.7,46.6,29.52,ESE,117,15.0,22.0,69,0.00,,,0.02,meteohub,2013-03-09 13:42:00,
2013-03-09 13:47:00,55.9,47.1,29.52,East,98,11.0,21.0,72,0.00,,,0.02,meteohub,2013-03-09 13:47:00,
2013-03-09 13:52:00,55.9,47.5,29.52,SE,125,16.0,21.0,73,0.00,,,0.02,meteohub,2013-03-09 13:52:00,
2013-03-09 13:57:00,56.5,48.4,29.52,East,88,9.0,20.0,74,0.00,,,0.02,meteohub,2013-03-09 13:57:00,
2013-03-09 14:02:00,57.0,48.4,29.52,ENE,74,9.0,19.0,73,0.00,,,0.02,meteohub,2013-03-09 14:02:00,
2013-03-09 14:07:00,58.6,48.9,29.52,ESE,102,11.0,20.0,70,0.00,,,0.02,meteohub,2013-03-09 14:07:00,
2013-03-09 14:12:00,58.6,48.9,29.52,ESE,115,22.0,22.0,70,0.00,,,0.02,meteohub,2013-03-09 14:12:00,
2013-03-09 14:17:00,58.8,48.7,29.52,East,93,14.0,24.0,69,0.00,,,0.02,meteohub,2013-03-09 14:17:00,
2013-03-09 14:22:00,57.7,47.3,29.52,East,94,19.0,24.0,68,0.00,,,0.02,meteohub,2013-03-09 14:22:00,
2013-03-09 14:27:00,56.8,47.1,29.52,ESE,105,18.0,26.0,70,0.00,,,0.02,meteohub,2013-03-09 14:27:00,
2013-03-09 14:32:00,57.2,47.8,29.52,ESE,107,19.0,26.0,71,0.00,,,0.02,meteohub,2013-03-09 14:32:00,
2013-03-09 14:37:00,57.9,48.6,29.52,ESE,112,15.0,21.0,71,0.00,,,0.02,meteohub,2013-03-09 14:37:00,
2013-03-09 14:42:00,56.5,48.9,29.53,ESE,115,10.0,22.0,76,0.00,,,0.02,meteohub,2013-03-09 14:42:00,
2013-03-09 14:47:00,54.9,48.2,29.52,ENE,75,14.0,26.0,78,0.00,,,0.02,meteohub,2013-03-09 14:47:00,
2013-03-09 14:57:00,52.9,47.8,29.53,East,85,9.0,26.0,83,0.00,,,0.02,meteohub,2013-03-09 14:57:00,
2013-03-09 15:02:00,52.5,47.8,29.53,East,84,16.0,24.0,84,0.00,,,0.02,meteohub,2013-03-09 15:02:00,
2013-03-09 15:07:00,52.3,48.0,29.53,East,83,13.0,24.0,85,0.00,,,0.02,meteohub,2013-03-09 15:07:00,
2013-03-09 15:12:00,52.3,48.2,29.53,ENE,78,16.0,26.0,86,0.00,,,0.02,meteohub,2013-03-09 15:12:00,
2013-03-09 15:17:00,52.2,48.0,29.53,East,98,14.0,26.0,86,0.00,,,0.02,meteohub,2013-03-09 15:17:00,
2013-03-09 15:22:00,51.8,47.7,29.53,ENE,78,10.0,26.0,86,0.00,,,0.02,meteohub,2013-03-09 15:22:00,
2013-03-09 15:27:00,51.8,47.7,29.53,ENE,77,13.0,25.0,86,0.00,,,0.02,meteohub,2013-03-09 15:27:00,
2013-03-09 15:32:00,52.5,48.4,29.54,ENE,61,10.0,25.0,86,0.00,,,0.02,meteohub,2013-03-09 15:32:00,
2013-03-09 15:37:00,52.0,47.7,29.54,East,91,13.0,30.0,85,0.00,,,0.02,meteohub,2013-03-09 15:37:00,
2013-03-09 15:42:00,51.6,47.5,29.54,East,88,14.0,30.0,86,0.00,,,0.02,meteohub,2013-03-09 15:42:00,
2013-03-09 15:47:00,51.4,47.5,29.54,SE,136,11.0,30.0,86,0.00,,,0.02,meteohub,2013-03-09 15:47:00,
2013-03-09 15:52:00,50.9,47.1,29.54,East,88,6.0,28.0,87,0.00,,,0.02,meteohub,2013-03-09 15:52:00,
2013-03-09 15:57:00,50.5,46.8,29.54,East,86,11.0,24.0,87,0.00,,,0.02,meteohub,2013-03-09 15:57:00,
2013-03-09 16:02:00,50.5,46.8,29.54,East,93,19.0,24.0,87,0.00,,,0.02,meteohub,2013-03-09 16:02:00,
2013-03-09 16:07:00,50.7,47.3,29.54,ENE,68,21.0,26.0,88,0.00,,,0.02,meteohub,2013-03-09 16:07:00,
2013-03-09 16:12:00,50.7,47.3,29.54,East,90,13.0,26.0,88,0.00,,,0.02,meteohub,2013-03-09 16:12:00,
2013-03-09 16:17:00,50.5,47.1,29.54,East,95,13.0,28.0,88,0.00,,,0.02,meteohub,2013-03-09 16:17:00,
2013-03-09 16:22:00,50.5,47.1,29.55,East,95,13.0,28.0,88,0.00,,,0.02,meteohub,2013-03-09 16:22:00,
2013-03-09 16:27:00,50.4,46.9,29.55,East,99,10.0,28.0,88,0.00,,,0.02,meteohub,2013-03-09 16:27:00,
2013-03-09 16:32:00,50.0,46.6,29.55,East,94,14.0,22.0,88,0.00,,,0.02,meteohub,2013-03-09 16:32:00,
2013-03-09 16:37:00,49.8,46.4,29.55,ENE,63,10.0,24.0,88,0.00,,,0.02,meteohub,2013-03-09 16:37:00,
2013-03-09 16:42:00,49.6,46.2,29.55,East,84,14.0,25.0,88,0.00,,,0.02,meteohub,2013-03-09 16:42:00,
2013-03-09 16:47:00,49.5,46.0,29.55,East,84,18.0,25.0,88,0.00,,,0.02,meteohub,2013-03-09 16:47:00,
2013-03-09 16:52:00,49.3,46.2,29.55,ENE,74,14.0,25.0,89,0.00,,,0.02,meteohub,2013-03-09 16:52:00,
2013-03-09 16:57:00,49.1,46.0,29.56,East,80,11.0,29.0,89,0.00,,,0.02,meteohub,2013-03-09 16:57:00,
2013-03-09 17:02:00,48.9,45.9,29.56,East,87,14.0,29.0,89,0.00,,,0.02,meteohub,2013-03-09 17:02:00,
2013-03-09 17:07:00,48.7,45.7,29.56,East,98,19.0,29.0,89,0.00,,,0.02,meteohub,2013-03-09 17:07:00,
2013-03-09 17:12:00,48.6,45.5,29.56,East,101,14.0,24.0,89,0.00,,,0.02,meteohub,2013-03-09 17:12:00,
2013-03-09 17:17:00,48.4,45.3,29.56,NE,51,11.0,21.0,89,0.00,,,0.02,meteohub,2013-03-09 17:17:00,
2013-03-09 17:22:00,48.4,45.5,29.56,ENE,78,11.0,22.0,90,0.00,,,0.02,meteohub,2013-03-09 17:22:00,
2013-03-09 17:27:00,48.2,45.3,29.57,East,86,10.0,24.0,90,0.00,,,0.02,meteohub,2013-03-09 17:27:00,
2013-03-09 17:32:00,48.0,45.1,29.56,East,82,14.0,24.0,90,0.00,,,0.02,meteohub,2013-03-09 17:32:00,
2013-03-09 17:37:00,48.0,45.1,29.57,East,87,16.0,24.0,90,0.00,,,0.02,meteohub,2013-03-09 17:37:00,
2013-03-09 17:42:00,47.8,45.0,29.57,East,101,16.0,24.0,90,0.00,,,0.02,meteohub,2013-03-09 17:42:00,
2013-03-09 17:47:00,47.7,45.0,29.57,East,93,18.0,24.0,90,0.00,,,0.02,meteohub,2013-03-09 17:47:00,
2013-03-09 17:52:00,47.7,45.0,29.57,East,86,11.0,21.0,90,0.00,,,0.02,meteohub,2013-03-09 17:52:00,
2013-03-09 17:57:00,47.5,44.8,29.57,East,86,11.0,22.0,90,0.00,,,0.02,meteohub,2013-03-09 17:57:00,
2013-03-09 18:02:00,47.1,44.4,29.58,ENE,69,21.0,22.0,90,0.00,,,0.02,meteohub,2013-03-09 18:02:00,
2013-03-09 18:07:00,46.9,44.2,29.58,ESE,108,10.0,21.0,90,0.00,,,0.02,meteohub,2013-03-09 18:07:00,
2013-03-09 18:12:00,46.8,44.2,29.58,ENE,67,11.0,21.0,91,0.00,,,0.02,meteohub,2013-03-09 18:12:00,
2013-03-09 18:17:00,46.8,44.2,29.58,ENE,71,22.0,22.0,91,0.00,,,0.02,meteohub,2013-03-09 18:17:00,
2013-03-09 18:22:00,46.6,44.1,29.58,ESE,107,14.0,29.0,91,0.00,,,0.02,meteohub,2013-03-09 18:22:00,
2013-03-09 18:27:00,46.4,43.9,29.58,East,88,16.0,29.0,91,0.00,,,0.02,meteohub,2013-03-09 18:27:00,
2013-03-09 18:32:00,46.2,43.7,29.58,ESE,105,19.0,29.0,91,0.00,,,0.02,meteohub,2013-03-09 18:32:00,
2013-03-09 18:37:00,46.2,44.1,29.59,East,85,16.0,24.0,92,0.00,,,0.02,meteohub,2013-03-09 18:37:00,
2013-03-09 18:42:00,46.2,44.1,29.59,East,80,13.0,24.0,92,0.00,,,0.02,meteohub,2013-03-09 18:42:00,
2013-03-09 18:47:00,46.0,43.5,29.59,ESE,107,11.0,24.0,91,0.00,,,0.02,meteohub,2013-03-09 18:47:00,
2013-03-09 18:52:00,46.0,43.5,29.59,ENE,78,10.0,22.0,91,0.00,,,0.02,meteohub,2013-03-09 18:52:00,
2013-03-09 18:57:00,45.9,43.3,29.59,East,94,10.0,22.0,91,0.00,,,0.02,meteohub,2013-03-09 18:57:00,
2013-03-09 19:02:00,45.7,43.2,29.60,East,85,13.0,29.0,91,0.00,,,0.02,meteohub,2013-03-09 19:02:00,
2013-03-09 19:07:00,45.5,43.0,29.60,ENE,74,14.0,29.0,91,0.00,,,0.02,meteohub,2013-03-09 19:07:00,
2013-03-09 19:12:00,45.3,42.8,29.60,East,84,14.0,25.0,91,0.00,,,0.02,meteohub,2013-03-09 19:12:00,
2013-03-09 19:17:00,45.3,42.8,29.60,East,88,19.0,29.0,91,0.00,,,0.02,meteohub,2013-03-09 19:17:00,
2013-03-09 19:22:00,45.1,42.6,29.60,ESE,109,16.0,30.0,91,0.00,,,0.02,meteohub,2013-03-09 19:22:00,
2013-03-09 19:27:00,45.3,42.8,29.60,ENE,62,19.0,30.0,91,0.00,,,0.02,meteohub,2013-03-09 19:27:00,
2013-03-09 19:32:00,45.1,42.6,29.60,ESE,103,16.0,32.0,91,0.00,,,0.02,meteohub,2013-03-09 19:32:00,
2013-03-09 19:37:00,45.1,42.6,29.61,East,94,14.0,32.0,91,0.00,,,0.02,meteohub,2013-03-09 19:37:00,
2013-03-09 19:42:00,45.1,42.6,29.60,ENE,72,13.0,32.0,91,0.00,,,0.02,meteohub,2013-03-09 19:42:00,
2013-03-09 19:47:00,45.0,42.4,29.61,East,94,14.0,24.0,91,0.00,,,0.02,meteohub,2013-03-09 19:47:00,
2013-03-09 19:52:00,45.0,42.4,29.61,ENE,73,14.0,24.0,91,0.00,,,0.02,meteohub,2013-03-09 19:52:00,
2013-03-09 19:57:00,44.8,42.3,29.61,East,92,18.0,29.0,91,0.00,,,0.02,meteohub,2013-03-09 19:57:00,
2013-03-09 20:02:00,44.8,42.1,29.61,East,86,20.0,29.0,90,0.00,,,0.02,meteohub,2013-03-09 20:02:00,
2013-03-09 20:07:00,44.8,42.1,29.61,East,99,16.0,26.0,90,0.00,,,0.02,meteohub,2013-03-09 20:07:00,
2013-03-09 20:12:00,44.6,41.9,29.61,East,96,16.0,26.0,90,0.00,,,0.02,meteohub,2013-03-09 20:12:00,
2013-03-09 20:17:00,44.6,41.9,29.62,East,101,11.0,26.0,90,0.00,,,0.02,meteohub,2013-03-09 20:17:00,
2013-03-09 20:22:00,44.6,41.9,29.62,East,83,9.0,25.0,90,0.00,,,0.02,meteohub,2013-03-09 20:22:00,
2013-03-09 20:27:00,44.4,41.7,29.62,ENE,63,14.0,26.0,90,0.00,,,0.02,meteohub,2013-03-09 20:27:00,
2013-03-09 20:32:00,44.4,41.7,29.62,East,97,16.0,26.0,90,0.00,,,0.02,meteohub,2013-03-09 20:32:00,
2013-03-09 20:37:00,44.4,41.7,29.62,East,90,18.0,26.0,90,0.00,,,0.02,meteohub,2013-03-09 20:37:00,
2013-03-09 20:42:00,44.2,41.5,29.62,ENE,78,18.0,26.0,90,0.00,,,0.02,meteohub,2013-03-09 20:42:00,
2013-03-09 20:47:00,44.2,41.5,29.62,East,86,11.0,28.0,90,0.00,,,0.02,meteohub,2013-03-09 20:47:00,
2013-03-09 20:52:00,44.2,41.5,29.62,East,89,24.0,28.0,90,0.00,,,0.02,meteohub,2013-03-09 20:52:00,
2013-03-09 20:57:00,44.2,41.5,29.62,ENE,60,21.0,30.0,90,0.00,,,0.02,meteohub,2013-03-09 20:57:00,
2013-03-09 21:02:00,44.1,41.4,29.62,East,90,21.0,30.0,90,0.00,,,0.02,meteohub,2013-03-09 21:02:00,
2013-03-09 21:07:00,44.1,41.4,29.62,ESE,107,6.0,31.0,90,0.00,,,0.02,meteohub,2013-03-09 21:07:00,
2013-03-09 21:12:00,43.9,40.8,29.63,East,92,10.0,31.0,89,0.00,,,0.02,meteohub,2013-03-09 21:12:00,
2013-03-09 21:17:00,43.9,40.8,29.63,East,84,11.0,31.0,89,0.00,,,0.02,meteohub,2013-03-09 21:17:00,
2013-03-09 21:22:00,43.9,40.8,29.63,ENE,62,18.0,31.0,89,0.00,,,0.02,meteohub,2013-03-09 21:22:00,
2013-03-09 21:27:00,43.9,40.8,29.63,ENE,72,11.0,31.0,89,0.00,,,0.02,meteohub,2013-03-09 21:27:00,
2013-03-09 21:32:00,43.7,40.6,29.63,East,86,16.0,25.0,89,0.00,,,0.02,meteohub,2013-03-09 21:32:00,
2013-03-09 21:37:00,43.5,40.5,29.63,ENE,78,14.0,24.0,89,0.00,,,0.02,meteohub,2013-03-09 21:37:00,
2013-03-09 21:42:00,43.5,40.5,29.63,ENE,78,13.0,24.0,89,0.00,,,0.02,meteohub,2013-03-09 21:42:00,
2013-03-09 21:47:00,43.5,40.5,29.63,ESE,103,19.0,24.0,89,0.00,,,0.02,meteohub,2013-03-09 21:47:00,
2013-03-09 21:52:00,43.5,40.5,29.63,East,100,13.0,28.0,89,0.00,,,0.02,meteohub,2013-03-09 21:52:00,
2013-03-09 21:57:00,43.3,40.3,29.63,ESE,104,16.0,28.0,89,0.00,,,0.02,meteohub,2013-03-09 21:57:00,
2013-03-09 22:02:00,43.3,40.3,29.63,ENE,69,27.0,28.0,89,0.00,,,0.02,meteohub,2013-03-09 22:02:00,
2013-03-09 22:07:00,43.3,40.3,29.63,ENE,67,14.0,28.0,89,0.00,,,0.02,meteohub,2013-03-09 22:07:00,
2013-03-09 22:12:00,43.3,40.3,29.63,ENE,74,20.0,30.0,89,0.00,,,0.02,meteohub,2013-03-09 22:12:00,
2013-03-09 22:17:00,43.3,40.3,29.63,East,86,11.0,30.0,89,0.00,,,0.02,meteohub,2013-03-09 22:17:00,
2013-03-09 22:22:00,43.3,40.1,29.64,East,98,11.0,30.0,88,0.00,,,0.02,meteohub,2013-03-09 22:22:00,
2013-03-09 22:27:00,43.3,40.3,29.64,East,80,18.0,25.0,89,0.00,,,0.02,meteohub,2013-03-09 22:27:00,
2013-03-09 22:32:00,43.3,40.1,29.64,East,84,16.0,30.0,88,0.00,,,0.02,meteohub,2013-03-09 22:32:00,
2013-03-09 22:37:00,43.2,39.9,29.64,ESE,115,21.0,30.0,88,0.00,,,0.02,meteohub,2013-03-09 22:37:00,
2013-03-09 22:42:00,43.2,39.9,29.64,ESE,108,11.0,30.0,88,0.00,,,0.02,meteohub,2013-03-09 22:42:00,
2013-03-09 22:47:00,43.2,39.9,29.64,East,86,13.0,29.0,88,0.00,,,0.02,meteohub,2013-03-09 22:47:00,
2013-03-09 22:52:00,43.2,39.9,29.64,East,81,20.0,30.0,88,0.00,,,0.02,meteohub,2013-03-09 22:52:00,
2013-03-09 22:57:00,43.0,39.7,29.65,ENE,78,13.0,34.0,88,0.00,,,0.02,meteohub,2013-03-09 22:57:00,
2013-03-09 23:02:00,43.0,39.7,29.65,East,97,18.0,34.0,88,0.00,,,0.02,meteohub,2013-03-09 23:02:00,
2013-03-09 23:07:00,43.0,39.7,29.65,East,81,13.0,34.0,88,0.00,,,0.02,meteohub,2013-03-09 23:07:00,
2013-03-09 23:12:00,43.0,39.7,29.65,ENE,68,21.0,32.0,88,0.00,,,0.02,meteohub,2013-03-09 23:12:00,
2013-03-09 23:17:00,43.0,39.7,29.65,East,87,16.0,32.0,88,0.00,,,0.02,meteohub,2013-03-09 23:17:00,
2013-03-09 23:22:00,43.0,39.7,29.65,ENE,68,10.0,32.0,88,0.00,,,0.02,meteohub,2013-03-09 23:22:00,
2013-03-09 23:27:00,43.0,39.7,29.65,East,100,16.0,25.0,88,0.00,,,0.02,meteohub,2013-03-09 23:27:00,
2013-03-09 23:32:00,43.0,39.7,29.65,East,80,11.0,25.0,88,0.00,,,0.02,meteohub,2013-03-09 23:32:00,
2013-03-09 23:37:00,42.8,39.6,29.65,East,90,11.0,28.0,88,0.00,,,0.02,meteohub,2013-03-09 23:37:00,
2013-03-09 23:42:00,42.8,39.6,29.65,East,97,10.0,26.0,88,0.00,,,0.02,meteohub,2013-03-09 23:42:00,
2013-03-09 23:47:00,42.8,39.6,29.65,ESE,103,19.0,28.0,88,0.00,,,0.02,meteohub,2013-03-09 23:47:00,
2013-03-09 23:52:00,42.6,39.4,29.65,East,97,18.0,28.0,88,0.00,,,0.02,meteohub,2013-03-09 23:52:00,
2013-03-09 23:57:00,42.6,39.4,29.64,East,96,21.0,28.0,88,0.00,,,0.02,meteohub,2013-03-09 23:57:00,